Weather History for Fryeburg, ME

Change the Weather History Date:

Saturday, January 26, 2013

  Actual Average Record
Temperature  
Mean Temperature 8 °F -  
Max Temperature 19 °F 27 °F 48 °F (2002)
Min Temperature -2 °F 2 °F -25 °F (2004)
Degree Days  
Heating Degree Days 56    
Moisture  
Dew Point -4 °F    
Average Humidity 54    
Maximum Humidity 87    
Minimum Humidity 29    
Precipitation  
Precipitation 0.00 in - - ()
Sea Level Pressure  
Sea Level Pressure 30.06 in    
Wind  
Wind Speed 3 mph (NW)    
Max Wind Speed 12 mph    
Max Gust Speed 20 mph    
Visibility 10 miles    
Events      
Averages and records for this station are not official NWS values.
T = Trace of Precipitation, MM = Missing Value Source: NWS Daily Summary

Daily Weather History Graph

Daily Weather History Graph

Search for Another Location

Airport:

Trip Planner

Search our weather history database for the weather conditions in past years. The results will help you decide how hot, cold, wet, or windy it might be!

Date:

Astronomy

Jan. 26, 2013 Rise Set
Actual Time 7:07 AM EST 4:46 PM EST
Civil Twilight 6:35 AM EST 5:17 PM EST
Nautical Twilight 6:00 AM EST 5:52 PM EST
Astronomical Twilight 5:26 AM EST 6:26 PM EST
Moon 4:39 PM EST (1/26) 6:21 AM EST (1/26)
Length of Visible Light 10h 41m
Length of Day
9h 39m
Full, 100% of the Moon is Illuminated
Jan 26
Full
Jan 26
Full
Feb 3
Last Quarter
Feb 10
New
Feb 17
First Quarter

Hourly Weather History & Observations

Time (EST) Temp. Windchill Dew Point Humidity Pressure Visibility Wind Dir Wind Speed Gust Speed Precip Events Conditions
12:54 AM 8.1 °F - 1.0 °F 73% 30.05 in 10.0 mi Calm Calm - N/A   Overcast
1:54 AM 8.1 °F - 1.0 °F 73% 30.04 in 10.0 mi Calm Calm - N/A   Overcast
2:54 AM 7.0 °F - 1.9 °F 80% 30.03 in 10.0 mi Calm Calm - N/A   Overcast
3:54 AM 7.0 °F - 1.0 °F 77% 30.01 in 10.0 mi Calm Calm - N/A   Overcast
4:54 AM 5.0 °F - -0.0 °F 80% 30.01 in 10.0 mi Calm Calm - N/A   Scattered Clouds
5:54 AM 1.0 °F - -2.9 °F 83% 30.02 in 10.0 mi Calm Calm - N/A   Clear
6:54 AM -2.9 °F - -6.0 °F 87% 30.04 in 10.0 mi Calm Calm - N/A   Clear
7:54 AM -0.0 °F - -5.1 °F 79% 30.06 in 10.0 mi Calm Calm - N/A   Clear
8:54 AM 10.0 °F - -2.0 °F 58% 30.06 in 10.0 mi Calm Calm - N/A   Clear
9:54 AM 14.0 °F - -2.0 °F 49% 30.06 in 10.0 mi Calm Calm - 0.00 in   Clear
10:54 AM 16.0 °F 7.4 °F -4.0 °F 41% 30.05 in 10.0 mi Variable 5.8 mph - 0.00 in   Clear
11:54 AM 19.0 °F 12.3 °F -6.0 °F 33% 30.03 in 10.0 mi NNW 4.6 mph - 0.00 in   Clear
12:54 PM 19.0 °F 9.0 °F -7.1 °F 31% 30.01 in 10.0 mi NNE 8.1 mph 16.1 mph 0.00 in   Clear
1:54 PM 19.0 °F 9.0 °F -9.0 °F 29% 30.01 in 10.0 mi NNE 8.1 mph - 0.00 in   Clear
2:54 PM 19.0 °F 8.2 °F -9.0 °F 29% 30.03 in 10.0 mi North 9.2 mph - 0.00 in   Clear
3:54 PM 17.1 °F 8.7 °F -9.0 °F 31% 30.07 in 10.0 mi NNW 5.8 mph - N/A   Partly Cloudy
4:54 PM 15.1 °F 5.2 °F -8.0 °F 36% 30.08 in 10.0 mi Variable 6.9 mph - N/A   Overcast
5:54 PM 14.0 °F 6.5 °F -9.9 °F 34% 30.09 in 10.0 mi Variable 4.6 mph 16.1 mph N/A   Overcast
6:54 PM 12.9 °F 3.8 °F -9.9 °F 35% 30.11 in 10.0 mi WNW 5.8 mph - N/A   Overcast
7:54 PM 12.0 °F -0.4 °F -6.0 °F 44% 30.12 in 10.0 mi West 9.2 mph 16.1 mph N/A   Scattered Clouds
8:54 PM 10.9 °F -2.6 °F -4.0 °F 51% 30.12 in 10.0 mi West 10.4 mph 16.1 mph N/A   Partly Cloudy
9:54 PM 10.9 °F -3.4 °F -2.9 °F 54% 30.12 in 10.0 mi West 11.5 mph 19.6 mph N/A   Clear
10:54 PM 10.9 °F 2.9 °F -2.9 °F 54% 30.14 in 10.0 mi West 4.6 mph - N/A   Overcast
11:54 PM 10.9 °F 1.4 °F -2.9 °F 54% 30.14 in 10.0 mi WSW 5.8 mph - N/A   Scattered Clouds